Regional Weather Roundup
Issued by NWS

Home | Current Version | Previous Version | Graphics & Text | Print | Product List | Glossary On
Versions: 1 2 3 4 5 6 7 8 9 10 11 12 13 14 15 16 17 18 19 20 21 22 23 24 25 26 27 28 29 30 31 32 33 34 35 36 37 38 39 40 41 42 43 44 45 46 47 48 49 50
000
ASUS43 KLMK 262002
RWRKY
KENTUCKY REGIONAL WEATHER ROUNDUP
NATIONAL WEATHER SERVICE LOUISVILLE KY
300 PM EST FRI DEC 26 2014

NOTE "FAIR" INDICATES FEW OR NO CLOUDS BELOW 12,000 FEET
WITH NO SIGNIFICANT WEATHER AND/OR OBSTRUCTIONS TO VISIBILITY.

KYZ001>023-026-027-061>063-070>075-262100-
WESTERN AND SOUTH CENTRAL KENTUCKY

CITY           SKY/WX    TMP DP  RH WIND       PRES   REMARKS
PADUCAH        MOSUNNY   59  42  53 SW12      30.14F
HENDERSON      SUNNY     57  41  54 S12       30.15S
OWENSBORO      SUNNY     57  42  57 S14       30.17F
HOPKINSVILLE   MOSUNNY   56  39  52 S8        30.18F
BOWLING GREEN  SUNNY     56  34  43 SW12      30.22S
GLASGOW        NOT AVBL
$$

KYZ024-025-028>034-038-045-046-053-262100-
NORTH CENTRAL KENTUCKY

CITY           SKY/WX    TMP DP  RH WIND       PRES   REMARKS
LOUISVILLE/SDF MOSUNNY   57  36  45 S13       30.18F
LOUISVILLE/LOU SUNNY     55  37  50 S8        30.19S
FORT KNOX      SUNNY     55  38  53 S12       30.18S
$$

KYZ035>037-039>044-047>052-055>060-089>105-262100-
NORTHEAST KENTUCKY

CITY           SKY/WX    TMP DP  RH WIND       PRES   REMARKS
LEXINGTON      MOSUNNY   52  33  48 SW15      30.21F
COVINGTON      PTSUNNY   51  35  54 SW9       30.17F
FRANKFORT      MOSUNNY   53  34  48 S13       30.19F
$$

KYZ054-064>069-076>088-106>120-262100-
SOUTHEAST KENTUCKY

CITY           SKY/WX    TMP DP  RH WIND       PRES   REMARKS
JACKSON        SUNNY     54  29  38 S3        30.24S
LONDON         SUNNY     53  25  33 S10       30.25F
SOMERSET       SUNNY     52  34  50 SW5       30.26S
MIDDLESBORO    SUNNY     52  33  47 S10       30.28R
MONTICELLO     CLEAR     57  34  42 W7        30.27F
$$



USA.gov is the U.S. government's official web portal to all federal, state and local government web resources and services.